"Period start","avg(HW err(1)/warn(2) (#))","avg(Visibility (m))","avg(Weather code (#))","avg(Precip intensity (mm/h))","min(HW err(1)/warn(2) (#))","max(HW err(1)/warn(2) (#))","std(HW err(1)/warn(2) (#))","med(HW err(1)/warn(2) (#))","min(Visibility (m))","max(Visibility (m))","std(Visibility (m))","med(Visibility (m))","min(Weather code (#))","max(Weather code (#))","std(Weather code (#))","med(Weather code (#))","min(Precip intensity (mm/h))","max(Precip intensity (mm/h))","std(Precip intensity (mm/h))","med(Precip intensity (mm/h))"
2014-10-26 00:00:00,2,41936,0,0.00,2,2,0,2,23340,49720,7798,42458,0,0,0,0,0.00,0.00,0.00,0.00
2014-10-26 00:10:00,2,35763,22,0.00,2,2,0,2,14021,49505,11589,38130,0,78,34,0,0.00,0.00,0.00,0.00
2014-10-26 00:20:00,2,41591,55,0.00,2,2,0,2,31697,50000,6262,42580,0,78,36,78,0.00,0.00,0.00,0.00
2014-10-26 00:30:00,2,40583,7,0.00,2,2,0,2,10467,50000,13678,48326,0,71,21,0,0.00,0.00,0.00,0.00
2014-10-26 00:40:00,2,36452,36,0.01,2,2,0,2,25619,47291,7166,36110,0,71,36,36,0.00,0.05,0.02,0.00
2014-10-26 00:50:00,2,40336,0,0.00,2,2,0,2,20907,50000,8969,43038,0,0,0,0,0.00,0.00,0.00,0.00
2014-10-26 01:00:00,2,26759,21,0.10,2,2,0,2,8370,38528,11968,31548,0,71,33,0,0.00,0.40,0.15,0.00
2014-10-26 01:10:00,2,15767,71,0.14,2,2,0,2,5894,34427,8291,14836,71,71,0,71,0.00,0.50,0.17,0.08
2014-10-26 01:20:00,2,29245,43,0.01,2,2,0,2,11152,41852,8568,30398,0,71,35,71,0.00,0.05,0.02,0.00
2014-10-26 01:30:00,2,30678,61,0.01,2,2,0,2,16810,45850,9507,29198,0,78,31,78,0.00,0.05,0.02,0.00
2014-10-26 01:40:00,2,33784,0,0.00,2,2,0,2,24595,46477,7257,32670,0,0,0,0,0.00,0.00,0.00,0.00
2014-10-26 01:50:00,2,38511,0,0.00,2,2,0,2,30584,49238,5572,39308,0,0,0,0,0.00,0.00,0.00,0.00
2014-10-26 02:00:00,2,31313,73,0.02,2,2,0,2,13027,45583,8926,31444,71,78,3,71,0.00,0.20,0.06,0.00
2014-10-26 02:10:00,2,31482,54,0.01,2,2,0,2,24412,39037,4840,31264,0,78,36,77,0.00,0.05,0.02,0.00
2014-10-26 02:20:00,2,37148,0,0.00,2,2,0,2,27851,46421,5524,37700,0,0,0,0,0.00,0.00,0.00,0.00
2014-10-26 02:30:00,2,18495,64,0.10,2,2,0,2,10200,24434,4716,19254,0,71,21,71,0.00,0.40,0.15,0.00
2014-10-26 02:40:00,2,21344,73,0.01,2,2,0,2,12884,25400,3151,21719,71,77,3,71,0.00,0.05,0.02,0.00
2014-10-26 02:50:00,2,28503,74,0.07,2,2,0,2,8570,41246,9833,30274,71,78,3,71,0.00,0.60,0.18,0.00
2014-10-26 03:00:00,2,28343,58,0.01,2,2,0,2,12621,41520,8228,30574,0,77,29,71,0.00,0.15,0.05,0.00
2014-10-26 03:10:00,2,29374,46,0.01,2,2,0,2,19101,40553,6061,29450,0,77,38,77,0.00,0.05,0.02,0.00
2014-10-26 03:20:00,2,27884,45,0.01,2,2,0,2,10051,45573,11281,27784,0,78,37,71,0.00,0.05,0.02,0.00
2014-10-26 03:30:00,2,25390,73,0.07,2,2,0,2,8559,41536,10606,26962,71,78,3,71,0.00,0.60,0.18,0.00
2014-10-26 03:40:00,2,27466,45,0.03,2,2,0,2,9160,39737,8971,30770,0,78,37,71,0.00,0.25,0.08,0.00
2014-10-26 03:50:00,2,38208,14,0.00,2,2,0,2,27756,46656,5470,39556,0,71,28,0,0.00,0.00,0.00,0.00
2014-10-26 04:00:00,2,29650,37,0.02,2,2,0,2,13451,44309,10116,30610,0,78,37,36,0.00,0.10,0.03,0.00
2014-10-26 04:10:00,2,23242,77,0.02,2,2,0,2,16884,30376,4705,23425,77,78,0,77,0.00,0.05,0.02,0.00
2014-10-26 04:20:00,2,37295,39,0.00,2,2,0,2,27956,46481,5557,35878,0,78,39,38,0.00,0.00,0.00,0.00
2014-10-26 04:30:00,2,33544,14,0.01,2,2,0,2,11428,46343,9978,36630,0,71,28,0,0.00,0.15,0.05,0.00
2014-10-26 04:40:00,2,23853,75,0.01,2,2,0,2,11976,34501,6190,24020,71,77,3,77,0.00,0.10,0.03,0.00
2014-10-26 04:50:00,2,27152,78,0.02,2,2,0,2,11837,39882,6872,26680,77,78,0,78,0.00,0.15,0.05,0.00
2014-10-26 05:00:00,2,35391,61,0.00,2,2,0,2,11944,49985,12942,38542,0,78,31,78,0.00,0.00,0.00,0.00
2014-10-26 05:10:00,2,22581,75,0.02,2,2,0,2,10060,34066,8680,21927,71,78,3,77,0.00,0.10,0.03,0.00
2014-10-26 05:20:00,2,43310,46,0.00,2,2,0,2,33639,49964,5092,43760,0,78,38,77,0.00,0.00,0.00,0.00
2014-10-26 05:30:00,2,44146,0,0.00,2,2,0,2,38218,49020,3710,44436,0,0,0,0,0.00,0.00,0.00,0.00
2014-10-26 05:40:00,2,39466,0,0.00,2,2,0,2,34350,43264,2478,39324,0,0,0,0,0.00,0.00,0.00,0.00
2014-10-26 05:50:00,2,41029,0,0.00,2,2,0,2,14721,50000,12322,46480,0,0,0,0,0.00,0.00,0.00,0.00
2014-10-26 06:00:00,2,44799,0,0.00,2,2,0,2,36174,50000,5452,46992,0,0,0,0,0.00,0.00,0.00,0.00
2014-10-26 06:10:00,2,37874,0,0.00,2,2,0,2,10524,48893,11864,43814,0,0,0,0,0.00,0.00,0.00,0.00
2014-10-26 06:20:00,2,49522,0,0.00,2,2,0,2,48059,50000,620,49842,0,0,0,0,0.00,0.00,0.00,0.00
2014-10-26 06:30:00,2,49011,0,0.00,2,2,0,2,47301,50000,1074,49541,0,0,0,0,0.00,0.00,0.00,0.00
2014-10-26 06:40:00,2,50000,0,0.00,2,2,0,2,50000,50000,0,50000,0,0,0,0,0.00,0.00,0.00,0.00
2014-10-26 06:50:00,2,50000,0,0.00,2,2,0,2,50000,50000,0,50000,0,0,0,0,0.00,0.00,0.00,0.00
2014-10-26 07:00:00,2,49477,0,0.00,2,2,0,2,48054,50000,814,50000,0,0,0,0,0.00,0.00,0.00,0.00
2014-10-26 07:10:00,2,49880,0,0.00,2,2,0,2,49055,50000,285,50000,0,0,0,0,0.00,0.00,0.00,0.00
2014-10-26 07:20:00,2,50000,0,0.00,2,2,0,2,50000,50000,0,50000,0,0,0,0,0.00,0.00,0.00,0.00
2014-10-26 07:30:00,2,50000,0,0.00,2,2,0,2,50000,50000,0,50000,0,0,0,0,0.00,0.00,0.00,0.00
2014-10-26 07:40:00,2,50000,0,0.00,2,2,0,2,50000,50000,0,50000,0,0,0,0,0.00,0.00,0.00,0.00
2014-10-26 07:50:00,2,50000,0,0.00,2,2,0,2,50000,50000,0,50000,0,0,0,0,0.00,0.00,0.00,0.00
2014-10-26 08:00:00,2,49520,0,0.00,2,2,0,2,45196,50000,1441,50000,0,0,0,0,0.00,0.00,0.00,0.00
2014-10-26 08:10:00,2,49652,0,0.00,2,2,0,2,48140,50000,698,50000,0,0,0,0,0.00,0.00,0.00,0.00
2014-10-26 08:20:00,2,49982,0,0.00,2,2,0,2,49884,50000,38,50000,0,0,0,0,0.00,0.00,0.00,0.00
2014-10-26 08:30:00,2,49723,0,0.00,2,2,0,2,46949,50000,877,50000,0,0,0,0,0.00,0.00,0.00,0.00
2014-10-26 08:40:00,2,50000,0,0.00,2,2,0,2,50000,50000,0,50000,0,0,0,0,0.00,0.00,0.00,0.00
2014-10-26 08:50:00,2,49982,0,0.00,2,2,0,2,49825,50000,52,50000,0,0,0,0,0.00,0.00,0.00,0.00
2014-10-26 09:00:00,2,49936,0,0.00,2,2,0,2,49613,50000,132,50000,0,0,0,0,0.00,0.00,0.00,0.00
2014-10-26 09:10:00,2,42938,0,0.00,2,2,0,2,19056,50000,9534,47064,0,0,0,0,0.00,0.00,0.00,0.00
2014-10-26 09:20:00,2,45319,0,0.00,2,2,0,2,32356,50000,6839,49699,0,0,0,0,0.00,0.00,0.00,0.00
2014-10-26 09:30:00,2,50000,0,0.00,2,2,0,2,50000,50000,0,50000,0,0,0,0,0.00,0.00,0.00,0.00
2014-10-26 09:40:00,2,49921,0,0.00,2,2,0,2,49210,50000,237,50000,0,0,0,0,0.00,0.00,0.00,0.00
2014-10-26 09:50:00,2,49920,0,0.00,2,2,0,2,49204,50000,239,50000,0,0,0,0,0.00,0.00,0.00,0.00
2014-10-26 10:00:00,2,46951,0,0.00,2,2,0,2,37569,50000,4729,50000,0,0,0,0,0.00,0.00,0.00,0.00
2014-10-26 10:10:00,2,37573,0,0.00,2,2,0,2,22920,50000,8978,38948,0,0,0,0,0.00,0.00,0.00,0.00
2014-10-26 10:20:00,2,49169,0,0.00,2,2,0,2,46114,50000,1236,49846,0,0,0,0,0.00,0.00,0.00,0.00
2014-10-26 10:30:00,2,50000,0,0.00,2,2,0,2,50000,50000,0,50000,0,0,0,0,0.00,0.00,0.00,0.00
2014-10-26 10:40:00,2,47522,0,0.00,2,2,0,2,36946,50000,4267,50000,0,0,0,0,0.00,0.00,0.00,0.00
2014-10-26 10:50:00,2,12230,0,0.00,2,2,0,2,8075,24459,4610,10524,0,0,0,0,0.00,0.00,0.00,0.00
2014-10-26 11:00:00,2,21952,0,0.00,2,2,0,2,10587,30323,7767,26526,0,0,0,0,0.00,0.00,0.00,0.00
2014-10-26 11:10:00,2,38503,0,0.00,2,2,0,2,30863,45981,4834,37334,0,0,0,0,0.00,0.00,0.00,0.00
2014-10-26 11:20:00,2,49414,0,0.00,2,2,0,2,45241,50000,1429,50000,0,0,0,0,0.00,0.00,0.00,0.00
2014-10-26 11:30:00,2,49959,0,0.00,2,2,0,2,49590,50000,123,50000,0,0,0,0,0.00,0.00,0.00,0.00
2014-10-26 11:40:00,2,48684,0,0.00,2,2,0,2,42463,50000,2361,49960,0,0,0,0,0.00,0.00,0.00,0.00
2014-10-26 11:50:00,2,19801,0,0.00,2,2,0,2,14547,27367,4100,19982,0,0,0,0,0.00,0.00,0.00,0.00
2014-10-26 12:00:00,2,45188,0,0.00,2,2,0,2,27222,50000,7581,49543,0,0,0,0,0.00,0.00,0.00,0.00
2014-10-26 12:10:00,2,33752,0,0.00,2,2,0,2,25619,44852,5536,32779,0,0,0,0,0.00,0.00,0.00,0.00
2014-10-26 12:20:00,2,30041,0,0.00,2,2,0,2,16635,43524,8864,32954,0,0,0,0,0.00,0.00,0.00,0.00
2014-10-26 12:30:00,2,46926,0,0.00,2,2,0,2,32898,50000,5153,49911,0,0,0,0,0.00,0.00,0.00,0.00
2014-10-26 12:40:00,2,49599,0,0.00,2,2,0,2,47608,50000,821,50000,0,0,0,0,0.00,0.00,0.00,0.00
2014-10-26 12:50:00,2,34666,28,0.03,2,2,0,2,6171,50000,18631,49043,0,71,35,0,0.00,0.20,0.06,0.00
2014-10-26 13:00:00,2,13423,71,0.06,2,2,0,2,8146,17754,2944,14171,71,71,0,71,0.00,0.15,0.07,0.03
2014-10-26 13:10:00,2,20685,71,0.07,2,2,0,2,13775,37527,6957,18000,71,71,0,71,0.00,0.35,0.10,0.05
2014-10-26 13:20:00,2,13398,71,0.19,2,2,0,2,4665,21519,5793,14694,71,71,0,71,0.00,0.55,0.19,0.12
2014-10-26 13:30:00,2,13780,71,0.19,2,2,0,2,4740,21081,6088,15698,71,71,0,71,0.00,0.55,0.21,0.08
2014-10-26 13:40:00,2,8088,71,0.42,2,2,0,2,5600,17167,3291,6764,71,71,0,71,0.10,0.85,0.25,0.33
2014-10-26 13:50:00,2,5302,71,0.48,2,2,0,2,2726,11105,2258,5220,71,71,0,71,0.05,1.45,0.38,0.38
2014-10-26 14:00:00,2,3614,71,0.77,2,2,0,2,2700,5536,831,3666,71,71,0,71,0.40,1.10,0.25,0.77
2014-10-26 14:10:00,2,3072,71,0.81,2,2,0,2,2082,4258,725,2792,71,71,0,71,0.35,1.75,0.40,0.78
2014-10-26 14:20:00,2,4014,71,0.95,2,2,0,2,2164,5620,1227,4173,71,71,0,71,0.20,2.15,0.52,0.90
2014-10-26 14:30:00,2,6634,71,0.31,2,2,0,2,4255,12601,2207,6001,71,71,0,71,0.10,0.75,0.19,0.30
2014-10-26 14:40:00,2,8638,71,0.24,2,2,0,2,4807,11591,2000,8395,71,71,0,71,0.05,0.90,0.25,0.15
2014-10-26 14:50:00,2,10611,71,0.27,2,2,0,2,4733,17733,4307,9349,71,71,0,71,0.00,1.05,0.31,0.10
2014-10-26 15:00:00,2,24348,71,0.18,2,2,0,2,7862,46115,10911,22074,71,71,0,71,0.00,1.15,0.33,0.05
2014-10-26 15:10:00,2,39559,0,0.00,2,2,0,2,17545,49780,9293,42909,0,0,0,0,0.00,0.00,0.00,0.00
2014-10-26 15:20:00,2,46006,0,0.00,2,2,0,2,37508,50000,3872,47742,0,0,0,0,0.00,0.00,0.00,0.00
2014-10-26 15:30:00,2,42413,0,0.00,2,2,0,2,35432,50000,4425,41936,0,0,0,0,0.00,0.00,0.00,0.00
2014-10-26 15:40:00,2,49268,0,0.00,2,2,0,2,46544,50000,1094,49746,0,0,0,0,0.00,0.00,0.00,0.00
2014-10-26 15:50:00,2,49582,0,0.00,2,2,0,2,45824,50000,1253,50000,0,0,0,0,0.00,0.00,0.00,0.00
2014-10-26 16:00:00,2,46695,0,0.00,2,2,0,2,36831,50000,4879,49620,0,0,0,0,0.00,0.00,0.00,0.00
2014-10-26 16:10:00,2,39429,22,0.00,2,2,0,2,31681,47981,5714,39116,0,78,34,0,0.00,0.00,0.00,0.00
2014-10-26 16:20:00,2,48277,0,0.00,2,2,0,2,42970,50000,2430,49682,0,0,0,0,0.00,0.00,0.00,0.00
2014-10-26 16:30:00,2,47637,0,0.00,2,2,0,2,42980,50000,2529,49088,0,0,0,0,0.00,0.00,0.00,0.00
2014-10-26 16:40:00,2,31763,0,0.00,2,2,0,2,14351,45383,11433,34606,0,0,0,0,0.00,0.00,0.00,0.00
2014-10-26 16:50:00,2,12346,14,0.00,2,2,0,2,9125,15083,1793,12652,0,71,28,0,0.00,0.00,0.00,0.00
2014-10-26 17:00:00,2,6688,74,0.10,2,2,0,2,3495,10461,2360,6392,71,78,4,74,0.00,0.40,0.12,0.05
2014-10-26 17:10:00,2,4849,73,0.07,2,2,0,2,3869,6512,954,4618,71,77,3,71,0.05,0.10,0.02,0.05
2014-10-26 17:20:00,2,21841,69,0.03,2,2,0,2,5225,50000,15215,14288,0,78,23,77,0.00,0.15,0.04,0.03
2014-10-26 17:30:00,2,47143,0,0.00,2,2,0,2,42949,50000,2632,47406,0,0,0,0,0.00,0.00,0.00,0.00
2014-10-26 17:40:00,2,49090,0,0.00,2,2,0,2,42690,50000,2153,50000,0,0,0,0,0.00,0.00,0.00,0.00
2014-10-26 17:50:00,2,47557,0,0.00,2,2,0,2,38881,50000,3463,49778,0,0,0,0,0.00,0.00,0.00,0.00
2014-10-26 18:00:00,2,41399,0,0.00,2,2,0,2,30315,49304,5834,41607,0,0,0,0,0.00,0.00,0.00,0.00
2014-10-26 18:10:00,2,47944,0,0.00,2,2,0,2,36151,50000,4108,50000,0,0,0,0,0.00,0.00,0.00,0.00
2014-10-26 18:20:00,2,43713,0,0.00,2,2,0,2,34473,50000,3832,44194,0,0,0,0,0.00,0.00,0.00,0.00
2014-10-26 18:30:00,2,35534,0,0.00,2,2,0,2,23508,50000,9685,33438,0,0,0,0,0.00,0.00,0.00,0.00
2014-10-26 18:40:00,2,45975,0,0.00,2,2,0,2,38090,50000,4021,46600,0,0,0,0,0.00,0.00,0.00,0.00
2014-10-26 18:50:00,2,46106,0,0.00,2,2,0,2,41919,50000,2977,44586,0,0,0,0,0.00,0.00,0.00,0.00
2014-10-26 19:00:00,2,49337,0,0.00,2,2,0,2,45935,50000,1360,50000,0,0,0,0,0.00,0.00,0.00,0.00
2014-10-26 19:10:00,2,49944,0,0.00,2,2,0,2,49436,50000,169,50000,0,0,0,0,0.00,0.00,0.00,0.00
2014-10-26 19:20:00,2,49530,0,0.00,2,2,0,2,45301,50000,1410,50000,0,0,0,0,0.00,0.00,0.00,0.00
2014-10-26 19:30:00,2,49922,0,0.00,2,2,0,2,49219,50000,234,50000,0,0,0,0,0.00,0.00,0.00,0.00
2014-10-26 19:40:00,2,49663,0,0.00,2,2,0,2,47942,50000,633,50000,0,0,0,0,0.00,0.00,0.00,0.00
2014-10-26 19:50:00,2,50000,0,0.00,2,2,0,2,50000,50000,0,50000,0,0,0,0,0.00,0.00,0.00,0.00
2014-10-26 20:00:00,2,50000,0,0.00,2,2,0,2,50000,50000,0,50000,0,0,0,0,0.00,0.00,0.00,0.00
2014-10-26 20:10:00,2,50000,0,0.00,2,2,0,2,50000,50000,0,50000,0,0,0,0,0.00,0.00,0.00,0.00
2014-10-26 20:20:00,2,50000,0,0.00,2,2,0,2,50000,50000,0,50000,0,0,0,0,0.00,0.00,0.00,0.00
2014-10-26 20:30:00,2,50000,0,0.00,2,2,0,2,50000,50000,0,50000,0,0,0,0,0.00,0.00,0.00,0.00
2014-10-26 20:40:00,2,50000,0,0.00,2,2,0,2,50000,50000,0,50000,0,0,0,0,0.00,0.00,0.00,0.00
2014-10-26 20:50:00,2,50000,0,0.00,2,2,0,2,50000,50000,0,50000,0,0,0,0,0.00,0.00,0.00,0.00
2014-10-26 21:00:00,2,50000,0,0.00,2,2,0,2,50000,50000,0,50000,0,0,0,0,0.00,0.00,0.00,0.00
2014-10-26 21:10:00,2,50000,0,0.00,2,2,0,2,50000,50000,0,50000,0,0,0,0,0.00,0.00,0.00,0.00
2014-10-26 21:20:00,2,50000,0,0.00,2,2,0,2,50000,50000,0,50000,0,0,0,0,0.00,0.00,0.00,0.00
2014-10-26 21:30:00,2,50000,0,0.00,2,2,0,2,50000,50000,0,50000,0,0,0,0,0.00,0.00,0.00,0.00
2014-10-26 21:40:00,2,50000,0,0.00,2,2,0,2,50000,50000,0,50000,0,0,0,0,0.00,0.00,0.00,0.00
2014-10-26 21:50:00,2,50000,0,0.00,2,2,0,2,50000,50000,0,50000,0,0,0,0,0.00,0.00,0.00,0.00
2014-10-26 22:00:00,2,50000,0,0.00,2,2,0,2,50000,50000,0,50000,0,0,0,0,0.00,0.00,0.00,0.00
2014-10-26 22:10:00,2,50000,0,0.00,2,2,0,2,50000,50000,0,50000,0,0,0,0,0.00,0.00,0.00,0.00
2014-10-26 22:20:00,2,50000,0,0.00,2,2,0,2,50000,50000,0,50000,0,0,0,0,0.00,0.00,0.00,0.00
2014-10-26 22:30:00,2,49863,0,0.00,2,2,0,2,48633,50000,410,50000,0,0,0,0,0.00,0.00,0.00,0.00
2014-10-26 22:40:00,2,50000,0,0.00,2,2,0,2,50000,50000,0,50000,0,0,0,0,0.00,0.00,0.00,0.00
2014-10-26 22:50:00,2,50000,0,0.00,2,2,0,2,50000,50000,0,50000,0,0,0,0,0.00,0.00,0.00,0.00
2014-10-26 23:00:00,2,50000,0,0.00,2,2,0,2,50000,50000,0,50000,0,0,0,0,0.00,0.00,0.00,0.00
2014-10-26 23:10:00,2,50000,0,0.00,2,2,0,2,50000,50000,0,50000,0,0,0,0,0.00,0.00,0.00,0.00
2014-10-26 23:20:00,2,50000,0,0.00,2,2,0,2,50000,50000,0,50000,0,0,0,0,0.00,0.00,0.00,0.00
2014-10-26 23:30:00,2,50000,0,0.00,2,2,0,2,50000,50000,0,50000,0,0,0,0,0.00,0.00,0.00,0.00
2014-10-26 23:40:00,2,50000,0,0.00,2,2,0,2,50000,50000,0,50000,0,0,0,0,0.00,0.00,0.00,0.00
2014-10-26 23:50:00,2,50000,0,0.00,2,2,0,2,50000,50000,0,50000,0,0,0,0,0.00,0.00,0.00,0.00
